Location: Ellerstadt
(49.4644°N, 8.2615°E)
Time: 09:09:35
(UTC+00:00)

Vanguard 2 Rocket - Visible Passes

Search period start: 15 June 2021 00:00
Search period end: 25 June 2021 00:00
Orbit: 554 x 3325 km, 32.9° (Epoch: 14 June)

Date Brightness Start Highest point End Pass type
(mag) Time Alt. Az. Time Alt. Az. Time Alt. Az.
15 Jun 9.0 01:05:45 10° WSW 01:09:57 15° SW 01:09:57 15° SW visible
15 Jun 9.0 21:45:30 10° WSW 21:58:52 35° S 22:07:21 10° ESE visible
16 Jun 8.7 00:03:07 10° WSW 00:11:44 23° SSW 00:13:15 22° SSW visible
16 Jun 9.3 20:43:32 10° SW 20:58:28 36° S 21:08:17 10° ESE visible
16 Jun 8.8 23:00:44 10° WSW 23:12:08 30° SSW 23:16:30 22° SSE visible
17 Jun 9.4 01:20:44 10° WSW 01:22:16 11° SW 01:22:16 11° SW visible
17 Jun 9.1 21:58:24 10° WSW 22:12:09 36° SSW 22:19:44 15° SE visible
18 Jun 9.0 00:16:55 10° WSW 00:24:43 20° SW 00:25:30 20° SSW visible
18 Jun 9.3 20:56:10 10° WSW 21:11:45 39° S 21:21:57 10° ESE visible
18 Jun 8.9 23:14:06 10° WSW 23:25:13 27° SSW 23:28:43 23° S visible
19 Jun 9.5 19:54:13 10° SW 20:11:00 40° S 20:22:36 10° ESE visible
19 Jun 9.2 22:11:31 10° WSW 22:25:18 34° SSW 22:31:55 19° SSE visible
20 Jun 9.4 00:31:19 10° WSW 00:37:30 15° SW 00:37:40 15° SW visible
20 Jun 9.3 21:09:06 10° WSW 21:24:57 39° S 21:35:07 11° SE visible
20 Jun 9.1 23:27:47 10° W 23:38:07 23° SW 23:40:52 21° SSW visible
21 Jun 9.6 20:06:55 10° WSW 20:24:11 42° S 20:36:12 10° ESE visible
21 Jun 9.1 22:24:51 10° W 22:38:18 31° SSW 22:44:03 21° SSE visible
22 Jun 9.7 00:47:39 10° WSW 00:49:47 11° SW 00:49:47 11° SW visible
22 Jun 9.4 21:22:13 10° WSW 21:38:02 38° SSW 21:47:14 15° SE visible
22 Jun 9.4 23:41:57 10° WSW 23:50:46 19° SW 23:52:58 18° SSW visible
23 Jun 9.6 20:19:53 10° WSW 20:37:18 42° S 20:49:35 10° SE visible
23 Jun 9.3 22:38:27 10° W 22:51:06 27° SW 22:56:09 21° S visible
24 Jun 9.4 21:35:32 10° W 21:50:56 34° SSW 21:59:20 18° SSE visible
